When you browse on this site, cookies collect data to enhance your experience and personalize the content and advertising you see.
Visit our Privacy Policy to learn more. By continuing to use the site, you agree to this use of cookies and data.
  • In Netherlands
  • List of Countries
  • For 7 days
  • Water Temperature
  • Satellite Maps
  • Weather Map
  • Weather Widgets
  • user-avatar
    Login

    Hourly Weather Dęblin

    Today, 24 June, Monday

    Time Temperature Precipitation Wind Pressure Humidity
    00:00 +17°C° 0 mm 3 mps 756 mmHg 85%
    01:00 +17°C° 0 mm 3 mps 757 mmHg 88%
    02:00 +17°C° 0 mm 3 mps 757 mmHg 91%
    03:00 +17°C° 0 mm 2 mps 757 mmHg 93%
    04:00 +16°C° 0 mm 2 mps 757 mmHg 96%
    05:00 +18°C° 0 mm 3 mps 757 mmHg 89%
    06:00 +20°C° 0 mm 3 mps 758 mmHg 83%
    07:00 +21°C° 0 mm 3 mps 758 mmHg 77%
    08:00 +22°C° 0 mm 4 mps 758 mmHg 70%
    09:00 +23°C° 0 mm 4 mps 758 mmHg 63%
    10:00 +25°C° 0 mm 5 mps 758 mmHg 56%
    11:00 +26°C° 0 mm 5 mps 758 mmHg 55%
    12:00 +27°C° 0 mm 4 mps 759 mmHg 53%
    13:00 +27°C° 0 mm 4 mps 759 mmHg 52%
    14:00 +27°C° 0 mm 4 mps 759 mmHg 52%
    15:00 +27°C° 0 mm 4 mps 758 mmHg 51%
    16:00 +27°C° 0 mm 4 mps 758 mmHg 51%
    17:00 +25°C° 0 mm 4 mps 758 mmHg 57%
    18:00 +24°C° 0 mm 3 mps 759 mmHg 63%
    19:00 +21°C° 0 mm 3 mps 759 mmHg 69%
    20:00 +20°C° 0 mm 3 mps 759 mmHg 73%
    21:00 +19°C° 0 mm 3 mps 759 mmHg 76%
    22:00 +18°C° 0 mm 3 mps 760 mmHg 80%
    23:00 +17°C° 0 mm 3 mps 760 mmHg 83%

    Tomorrow, 25 June, Tuesday

    Time Temperature Precipitation Wind Pressure Humidity
    00:00 +17°C° 0 mm 3 mps 760 mmHg 86%
    01:00 +16°C° 0 mm 3 mps 760 mmHg 89%
    02:00 +16°C° 0 mm 3 mps 760 mmHg 89%
    03:00 +16°C° 0 mm 3 mps 760 mmHg 89%
    04:00 +14°C° 0 mm 3 mps 760 mmHg 89%
    05:00 +17°C° 0 mm 3 mps 760 mmHg 85%
    06:00 +19°C° 0 mm 3 mps 760 mmHg 80%
    07:00 +20°C° 0 mm 4 mps 761 mmHg 75%
    08:00 +22°C° 0 mm 4 mps 761 mmHg 70%
    09:00 +25°C° 0 mm 4 mps 761 mmHg 65%
    10:00 +26°C° 0 mm 4 mps 761 mmHg 60%
    11:00 +26°C° 0 mm 4 mps 761 mmHg 52%
    12:00 +27°C° 0 mm 4 mps 761 mmHg 50%
    13:00 +28°C° 0 mm 4 mps 761 mmHg 48%
    14:00 +27°C° 0 mm 4 mps 760 mmHg 50%
    15:00 +27°C° 0 mm 4 mps 760 mmHg 51%
    16:00 +27°C° 0 mm 4 mps 760 mmHg 52%
    17:00 +26°C° 0 mm 3 mps 760 mmHg 59%
    18:00 +24°C° 0 mm 3 mps 760 mmHg 65%
    19:00 +23°C° 0 mm 2 mps 760 mmHg 72%
    20:00 +21°C° 0 mm 2 mps 760 mmHg 76%
    21:00 +19°C° 0 mm 2 mps 760 mmHg 81%
    22:00 +18°C° 0 mm 2 mps 760 mmHg 85%
    23:00 +18°C° 0 mm 2 mps 760 mmHg 87%

    Day after tomorrow, 26 June, Wednesday

    Time Temperature Precipitation Wind Pressure Humidity
    00:00 +17°C° 0 mm 2 mps 760 mmHg 88%
    01:00 +17°C° 0 mm 2 mps 760 mmHg 90%
    02:00 +16°C° 0 mm 2 mps 759 mmHg 90%
    03:00 +16°C° 0 mm 2 mps 759 mmHg 91%
    04:00 +16°C° 0 mm 2 mps 759 mmHg 91%
    05:00 +18°C° 0 mm 2 mps 759 mmHg 85%
    06:00 +20°C° 0 mm 2 mps 759 mmHg 80%
    07:00 +22°C° 0 mm 3 mps 759 mmHg 74%
    08:00 +25°C° 0 mm 3 mps 759 mmHg 68%
    09:00 +26°C° 0 mm 3 mps 758 mmHg 61%
    10:00 +28°C° 0 mm 3 mps 758 mmHg 54%
    11:00 +29°C° 0 mm 3 mps 758 mmHg 50%
    12:00 +29°C° 0 mm 3 mps 758 mmHg 47%
    13:00 +30°C° 0 mm 3 mps 757 mmHg 44%
    14:00 +30°C° 0 mm 3 mps 757 mmHg 44%
    15:00 +31°C° 0 mm 3 mps 756 mmHg 45%
    16:00 +31°C° 0 mm 3 mps 755 mmHg 45%
    17:00 +29°C° 0 mm 2 mps 755 mmHg 51%
    18:00 +28°C° 0 mm 2 mps 755 mmHg 58%
    19:00 +26°C° 0 mm 2 mps 754 mmHg 64%
    20:00 +25°C° 0 mm 2 mps 754 mmHg 66%
    21:00 +24°C° 0 mm 3 mps 754 mmHg 69%
    22:00 +22°C° 0 mm 3 mps 753 mmHg 71%
    23:00 +22°C° 0 mm 3 mps 753 mmHg 74%

    27 June, Thursday

    Time Temperature Precipitation Wind Pressure Humidity
    00:00 +21°C° 0 mm 3 mps 752 mmHg 77%
    01:00 +21°C° 0 mm 3 mps 752 mmHg 80%
    02:00 +21°C° 0 mm 3 mps 751 mmHg 81%
    03:00 +22°C° 0 mm 3 mps 751 mmHg 82%
    04:00 +22°C° 0 mm 3 mps 750 mmHg 82%
    05:00 +22°C° 1.4 mm 4 mps 750 mmHg 84%
    06:00 +23°C° 1.4 mm 4 mps 750 mmHg 85%
    07:00 +25°C° 1.4 mm 4 mps 750 mmHg 87%
    08:00 +24°C° 0 mm 6 mps 750 mmHg 81%
    09:00 +26°C° 0 mm 7 mps 750 mmHg 76%
    10:00 +26°C° 0 mm 8 mps 750 mmHg 70%
    11:00 +26°C° 0.1 mm 8 mps 750 mmHg 69%
    12:00 +26°C° 0.1 mm 8 mps 750 mmHg 68%
    13:00 +26°C° 0.1 mm 7 mps 750 mmHg 67%
    14:00 +26°C° 0.2 mm 7 mps 750 mmHg 68%
    15:00 +26°C° 0.2 mm 7 mps 750 mmHg 70%
    16:00 +24°C° 0.2 mm 6 mps 750 mmHg 71%
    17:00 +23°C° 0.1 mm 6 mps 750 mmHg 73%
    18:00 +22°C° 0.1 mm 5 mps 750 mmHg 76%
    19:00 +21°C° 0.1 mm 4 mps 750 mmHg 78%
    20:00 +19°C° 0 mm 4 mps 751 mmHg 77%
    21:00 +18°C° 0 mm 4 mps 751 mmHg 77%
    22:00 +16°C° 0 mm 3 mps 751 mmHg 76%
    23:00 +14°C° 0 mm 3 mps 751 mmHg 78%

    28 June, Friday

    Time Temperature Precipitation Wind Pressure Humidity
    00:00 +13°C° 0 mm 3 mps 751 mmHg 79%
    01:00 +13°C° 0 mm 2 mps 751 mmHg 81%
    02:00 +13°C° 0 mm 2 mps 751 mmHg 83%
    03:00 +13°C° 0 mm 2 mps 751 mmHg 85%
    04:00 +12°C° 0 mm 1 mps 751 mmHg 87%
    05:00 +14°C° 0 mm 1 mps 751 mmHg 79%
    06:00 +16°C° 0 mm 1 mps 751 mmHg 71%
    07:00 +19°C° 0 mm 1 mps 751 mmHg 63%
    08:00 +18°C° 0 mm 2 mps 751 mmHg 65%
    09:00 +18°C° 0 mm 2 mps 750 mmHg 66%
    10:00 +18°C° 0 mm 3 mps 750 mmHg 67%
    11:00 +20°C° 0.2 mm 4 mps 750 mmHg 64%
    12:00 +22°C° 0.2 mm 6 mps 750 mmHg 60%
    13:00 +23°C° 0.2 mm 7 mps 750 mmHg 57%
    14:00 +23°C° 0.4 mm 7 mps 750 mmHg 60%
    15:00 +22°C° 0.4 mm 7 mps 750 mmHg 64%
    16:00 +21°C° 0.4 mm 7 mps 750 mmHg 68%
    17:00 +20°C° 0 mm 6 mps 750 mmHg 67%
    18:00 +20°C° 0 mm 6 mps 751 mmHg 66%
    19:00 +19°C° 0 mm 5 mps 751 mmHg 64%
    20:00 +16°C° 0 mm 5 mps 751 mmHg 65%
    21:00 +14°C° 0 mm 4 mps 752 mmHg 66%
    22:00 +13°C° 0 mm 4 mps 752 mmHg 66%
    23:00 +12°C° 0 mm 3 mps 753 mmHg 71%

    29 June, Saturday

    Time Temperature Precipitation Wind Pressure Humidity
    00:00 +11°C° 0 mm 3 mps 753 mmHg 77%
    01:00 +10°C° 0 mm 2 mps 753 mmHg 82%
    02:00 +10°C° 0 mm 2 mps 753 mmHg 82%
    03:00 +9°C° 0 mm 2 mps 753 mmHg 81%
    04:00 +9°C° 0 mm 2 mps 753 mmHg 80%
    05:00 +12°C° 0 mm 2 mps 752 mmHg 74%
    06:00 +14°C° 0 mm 2 mps 752 mmHg 67%
    07:00 +16°C° 0 mm 2 mps 752 mmHg 61%
    08:00 +16°C° 0 mm 2 mps 752 mmHg 63%
    09:00 +16°C° 0 mm 2 mps 752 mmHg 65%
    10:00 +15°C° 0 mm 1 mps 752 mmHg 68%
    11:00 +18°C° 0 mm 1 mps 752 mmHg 63%
    12:00 +20°C° 0 mm 1 mps 751 mmHg 58%
    13:00 +22°C° 0 mm 1 mps 751 mmHg 53%
    14:00 +21°C° 0.1 mm 2 mps 751 mmHg 52%
    15:00 +22°C° 0.1 mm 3 mps 751 mmHg 51%
    16:00 +22°C° 0.1 mm 5 mps 750 mmHg 50%
    17:00 +21°C° 0 mm 4 mps 751 mmHg 56%
    18:00 +20°C° 0 mm 3 mps 751 mmHg 62%
    19:00 +18°C° 0 mm 3 mps 751 mmHg 67%
    20:00 +17°C° 0 mm 3 mps 752 mmHg 68%
    21:00 +14°C° 0 mm 3 mps 752 mmHg 69%
    22:00 +14°C° 0 mm 2 mps 753 mmHg 71%
    23:00 +13°C° 0 mm 2 mps 753 mmHg 74%
    Show more